Miscellaneous Local Product
Issued by NWS North Platte, NE

Home | Current Version | Previous Version | Graphics & Text | Print | Product List | Glossary On
Versions: 1 2 3 4 5 6 7 8 9 10 11 12 13 14 15 16 17 18 19 20 21 22 23 24 25 26 27 28 29 30 31 32 33 34 35 36 37 38 39 40 41 42 43 44 45 46 47 48 49 50
000
AXUS43 KLBF 221410
MISLBF


WESTERN AND NORTH CENTRAL NEBRASKA HOURLY WEATHER ROUNDUP
NATIONAL WEATHER SERVICE NORTH PLATTE NE
800 AM CST THU FEB 22 2018

NOTE: "FAIR" INDICATES FEW OR NO CLOUDS BELOW 12,000 FEET WITH NO
SIGNIFICANT WEATHER AND/OR OBSTRUCTIONS TO VISIBILITY.

NOTE: STATIONS NOT REPORTING VARIABLES SUCH AS SKY/WEATHER OR
PRESSURE ARE PROVIDED BY RAWS AND APRS NETWORKS AND ARE NOT UNDER
NATIONAL WEATHER SERVICE QUALITY CONTROL.

...OBSERVATIONS IN AND NEAR THE EASTERN PANHANDLE OF NEBRASKA...

CITY           SKY/WX    TMP DP  RH WIND       PRES   REMARKS
PINE RIDGE     FAIR      15   9  76 SW6       30.13F WCI   6
GORDON         CLOUDY     6   2  84 CALM      30.14S
CHADRON        FAIR      14   7  73 SW6       30.12F WCI   5
ALLIANCE       CLOUDY    10   8  92 CALM      30.10S
SIDNEY         CLOUDY    16  12  84 S10       30.09S WCI   4
$$

...OBSERVATIONS IN NORTHERN NEBRASKA AND FAR SOUTHERN SOUTH DAKOTA...

CITY           SKY/WX    TMP DP  RH WIND       PRES   REMARKS
WINNER         FAIR      18  13  80 S7        30.30R WCI   9
VALENTINE      CLOUDY    14  10  84 E5        30.25S WCI   6
AINSWORTH      CLOUDY    19  17  93 S8        30.25S WCI   9
O`NEILL        FLURRIES  19  18  95 SE6       30.33S WCI  11
THEDFORD       CLOUDY    21  17  85 S8        30.23R WCI  11
BROKEN BOW     CLOUDY    20  16  84 SE9       30.27R WCI   9
ORD            CLOUDY    20  18  92 SE6       30.29F WCI  12
ALBION         CLOUDY    22  19  87 SE12      30.34F WCI  10
$$

...OBSERVATIONS IN SOUTHWEST NEBRASKA AND FAR NORTHEAST COLORADO...

CITY           SKY/WX    TMP DP  RH WIND       PRES   REMARKS
WRAY           PTSUNNY   21  10  63 SE9       30.16R WCI  11
HOLYOKE        FAIR      21  10  63 S15       30.14S WCI   8
IMPERIAL       CLOUDY    19  14  81 SE12      30.19R WCI   7
OGALLALA       LGT SNOW  20  17  86 SE7       30.19R WCI  11
NORTH PLATTE   LGT SNOW  20  15  81 SE6       30.25R VSB 1   WCI  12
MCCOOK         CLOUDY    21  13  71 SE12      30.26R WCI   9
LEXINGTON      CLOUDY    22  17  83 SE8       30.28S WCI  12
GOTHENBURG       N/A     21  16  81 SE7         N/A  WCI  12
CALLAWAY         N/A     18  16  90 S9          N/A  WCI   7
$$

...OBSERVATIONS IN CENTRAL LINCOLN COUNTY AREA...

CITY           SKY/WX    TMP DP  RH WIND       PRES   REMARKS
N.P. AIRPORT   LGT SNOW  20  15  81 SE6       30.25R VSB 1   WCI  12
$$

...OBSERVATIONS ACROSS THE ROCKIES AND WESTERN HIGH PLAINS...

CITY           SKY/WX    TMP DP  RH WIND       PRES   REMARKS
RAPID CITY     FAIR       1  -3  83 CALM      30.12R
SCOTTSBLUFF    CLOUDY    14  11  87 E8        30.09F WCI   3
CHEYENNE       FAIR       8   4  83 W3        29.94R
DENVER         MOCLDY    15   9  76 W8        29.98S WCI   4
BERTHOUD PASS  CLOUDY     5  -6  61 W9        29.79S WCI  -9
COPPER MTN     LGT SNOW  12   7  79 W7        29.79S WCI   2
MONARCH PASS   SNOW       9   5  85 W12G20    29.91S VSB 1/2 WCI  -6
ASPEN          CLOUDY    15  13  91 CALM      29.88R
LARAMIE        FAIR      -1  -4  87 SE3       29.89F
CASPER         FAIR      -4 -10  75 NW7       29.99F WCI -18
$$

...OBSERVATIONS ACROSS THE NORTHERN PLAINS...

CITY           SKY/WX    TMP DP  RH WIND       PRES   REMARKS
BISMARCK       FAIR      -9 -13  83 NE5       30.31S WCI -20
FARGO          FAIR       7   1  76 S17       30.46R WCI -12
PIERRE         FAIR       5   2  87 SE12      30.30R WCI -11
SIOUX FALLS    CLOUDY    18  14  84 E8        30.44S WCI   8
$$

...OBSERVATIONS ACROSS THE CENTRAL AND SOUTHERN PLAINS...

CITY           SKY/WX    TMP DP  RH WIND       PRES   REMARKS
OMAHA          SNOW      24  20  84 NE7       30.44F VSB 1/2 WCI  16
GRAND ISLAND   CLOUDY    20  17  88 E10       30.33F WCI   9
KANSAS CITY    FRZ DRZL  27  26  96 E8        30.39S FOG     WCI  19
WICHITA        FRZ DRZL  28  27  96 CALM      30.34R FOG
DODGE CITY     CLOUDY    21  19  92 E7        30.27S FOG     WCI  12
OKLAHOMA CITY  FOG       28  28 100 NE7       30.31F VSB 3/4 WCI  21
DALLAS         TSTM      36  34  92 N9        30.27R VSB 1/2 WCI  29
AMARILLO       CLOUDY    25  17  72 CALM      30.16F
$$




USA.gov is the U.S. government's official web portal to all federal, state and local government web resources and services.